Галаасия

Узбекистан     39˚51′29″N   64˚26′50″E
темп.,
°C
ветер,
м/с
пор.,
м/с
влажн.,
%
обл.,
%
осадки,
мм/ч
давл.,
гПа
погр.,
м
6 декабря, вс
вс623:00−4˚с35708 0.0 103170
02:00−5˚с35740 0.0 103166
05:00−6˚с34750 0.0 103159
08:00−6˚с34750 0.0 103257
11:00+1˚ссв23392 0.0 1031252
14:00+6˚с33210 0.0 1029558
17:00+4˚с58258 0.0 1029187
20:00−1˚ссв6104375 0.0 1029181
7 декабря, пн
пн723:00−3˚с694870 0.0 1028148
02:00−3˚с6104783 0.0 1028183
05:00−4˚с8124584 0.0 1028232
08:00−5˚с8134563 0.0 1028223
11:00с8113061 0.0 1029310
14:00+3˚с8102315 0.0 1027441
17:00с8113031 0.0 1028411
20:00−4˚с7123998 0.0 1030283
8 декабря, вт
вт823:00−5˚с7114494 0.0 1030243
02:00−5˚с7114476 0.0 1030245
05:00−6˚с7114784 0.0 1031246
08:00−6˚с6104990 0.0 1032253
11:00−2˚с683784 0.0 1033345
14:00+1˚ссз673080 0.0 1032569
17:00−1˚с583470 0.0 1032294
20:00−5˚с58453 0.0 1034169
9 декабря, ср
ср923:00−6˚с47512 0.0 1035121
02:00−7˚с34580 0.0 103558
05:00−8˚всв12720 0.0 103445
08:00−8˚вюв22640 0.0 103556
11:00вюв23380 0.0 1035365
14:00+3˚вюв11240 0.0 1032590
17:00−1˚св11330 0.0 103122
20:00−3˚с33440 0.0 103136
10 декабря, чт
чт1023:00−3˚с34500 0.0 103140
02:00−4˚с33510 0.0 103133
05:00−4˚ссз335149 0.0 103135
08:00−5˚ссз237331 0.0 103235
11:00+3˚ссз225115 0.0 1032227
14:00+7˚ссз12320 0.0 1030507
17:00+5˚с454422 0.0 103085
20:00+2˚с575882 0.0 1030154